Location: Bogotá
(4.6533°N, 74.0837°W)
Time: 12:08:11
(UTC+00:00)

ISS - Pass Details

Date: 06 March 2026
Orbit: 416 x 427 km, 51.6° (Epoch: 6 March)

Event Time Altitude Azimuth Distance (km) Brightness Sun altitude
Rises 23:50:58 0° 216° (SW) 2,375 0.7 -11.2°
Reaches altitude 10° 23:53:05 10° 217° (SW) 1,509 -0.3 -11.8°
Maximum altitude 23:56:28 85° 303° (WNW) 428 -3.7 -12.6°
Enters shadow 23:59:35 12° 34° (NE) 1,393 -1.5 -13.4°
